Index of /20260504/WXO-DD/model_rdps/10km/00/081
Name Last modified Size Description
Parent Directory -
20260504T00Z_MSC_RDPS_AbsoluteVorticity_IsbL-0250_RLatLon0.09_PT081H.grib2 2026-05-04 03:06 598K
20260504T00Z_MSC_RDPS_AbsoluteVorticity_IsbL-0500_RLatLon0.09_PT081H.grib2 2026-05-04 03:06 554K
20260504T00Z_MSC_RDPS_AbsoluteVorticity_IsbL-0700_RLatLon0.09_PT081H.grib2 2026-05-04 03:06 605K
20260504T00Z_MSC_RDPS_AbsoluteVorticity_IsbL-0850_RLatLon0.09_PT081H.grib2 2026-05-04 03:06 781K
20260504T00Z_MSC_RDPS_AirTemp_AGL-120m_RLatLon0.09_PT081H.grib2 2026-05-04 03:06 377K
20260504T00Z_MSC_RDPS_AirTemp_AGL-2m_RLatLon0.09_PT081H.grib2 2026-05-04 03:06 637K
20260504T00Z_MSC_RDPS_AirTemp_AGL-40m_RLatLon0.09_PT081H.grib2 2026-05-04 03:06 409K
20260504T00Z_MSC_RDPS_AirTemp_AGL-80m_RLatLon0.09_PT081H.grib2 2026-05-04 03:06 384K
20260504T00Z_MSC_RDPS_AirTemp_IsbL-0001_RLatLon0.09_PT081H.grib2 2026-05-04 03:06 302K
20260504T00Z_MSC_RDPS_AirTemp_IsbL-0005_RLatLon0.09_PT081H.grib2 2026-05-04 03:06 287K
20260504T00Z_MSC_RDPS_AirTemp_IsbL-0010_RLatLon0.09_PT081H.grib2 2026-05-04 03:06 390K
20260504T00Z_MSC_RDPS_AirTemp_IsbL-0020_RLatLon0.09_PT081H.grib2 2026-05-04 03:06 321K
20260504T00Z_MSC_RDPS_AirTemp_IsbL-0030_RLatLon0.09_PT081H.grib2 2026-05-04 03:06 335K
20260504T00Z_MSC_RDPS_AirTemp_IsbL-0050_RLatLon0.09_PT081H.grib2 2026-05-04 03:06 311K
20260504T00Z_MSC_RDPS_AirTemp_IsbL-0100_RLatLon0.09_PT081H.grib2 2026-05-04 03:06 416K
20260504T00Z_MSC_RDPS_AirTemp_IsbL-0150_RLatLon0.09_PT081H.grib2 2026-05-04 03:06 405K
20260504T00Z_MSC_RDPS_AirTemp_IsbL-0175_RLatLon0.09_PT081H.grib2 2026-05-04 03:06 399K
20260504T00Z_MSC_RDPS_AirTemp_IsbL-0200_RLatLon0.09_PT081H.grib2 2026-05-04 03:06 407K
20260504T00Z_MSC_RDPS_AirTemp_IsbL-0225_RLatLon0.09_PT081H.grib2 2026-05-04 03:06 411K
20260504T00Z_MSC_RDPS_AirTemp_IsbL-0250_RLatLon0.09_PT081H.grib2 2026-05-04 03:06 417K
20260504T00Z_MSC_RDPS_AirTemp_IsbL-0275_RLatLon0.09_PT081H.grib2 2026-05-04 03:06 399K
20260504T00Z_MSC_RDPS_AirTemp_IsbL-0300_RLatLon0.09_PT081H.grib2 2026-05-04 03:06 407K
20260504T00Z_MSC_RDPS_AirTemp_IsbL-0350_RLatLon0.09_PT081H.grib2 2026-05-04 03:06 422K
20260504T00Z_MSC_RDPS_AirTemp_IsbL-0400_RLatLon0.09_PT081H.grib2 2026-05-04 03:06 421K
20260504T00Z_MSC_RDPS_AirTemp_IsbL-0450_RLatLon0.09_PT081H.grib2 2026-05-04 03:06 428K
20260504T00Z_MSC_RDPS_AirTemp_IsbL-0500_RLatLon0.09_PT081H.grib2 2026-05-04 03:06 438K
20260504T00Z_MSC_RDPS_AirTemp_IsbL-0550_RLatLon0.09_PT081H.grib2 2026-05-04 03:06 454K
20260504T00Z_MSC_RDPS_AirTemp_IsbL-0600_RLatLon0.09_PT081H.grib2 2026-05-04 03:06 434K
20260504T00Z_MSC_RDPS_AirTemp_IsbL-0650_RLatLon0.09_PT081H.grib2 2026-05-04 03:06 447K
20260504T00Z_MSC_RDPS_AirTemp_IsbL-0700_RLatLon0.09_PT081H.grib2 2026-05-04 03:06 472K
20260504T00Z_MSC_RDPS_AirTemp_IsbL-0750_RLatLon0.09_PT081H.grib2 2026-05-04 03:06 514K
20260504T00Z_MSC_RDPS_AirTemp_IsbL-0800_RLatLon0.09_PT081H.grib2 2026-05-04 03:06 571K
20260504T00Z_MSC_RDPS_AirTemp_IsbL-0850_RLatLon0.09_PT081H.grib2 2026-05-04 03:06 505K
20260504T00Z_MSC_RDPS_AirTemp_IsbL-0875_RLatLon0.09_PT081H.grib2 2026-05-04 03:06 524K
20260504T00Z_MSC_RDPS_AirTemp_IsbL-0900_RLatLon0.09_PT081H.grib2 2026-05-04 03:06 532K
20260504T00Z_MSC_RDPS_AirTemp_IsbL-0925_RLatLon0.09_PT081H.grib2 2026-05-04 03:06 530K
20260504T00Z_MSC_RDPS_AirTemp_IsbL-0950_RLatLon0.09_PT081H.grib2 2026-05-04 03:06 526K
20260504T00Z_MSC_RDPS_AirTemp_IsbL-0970_RLatLon0.09_PT081H.grib2 2026-05-04 03:06 521K
20260504T00Z_MSC_RDPS_AirTemp_IsbL-0985_RLatLon0.09_PT081H.grib2 2026-05-04 03:06 510K
20260504T00Z_MSC_RDPS_AirTemp_IsbL-1000_RLatLon0.09_PT081H.grib2 2026-05-04 03:06 489K
20260504T00Z_MSC_RDPS_AirTemp_IsbL-1015_RLatLon0.09_PT081H.grib2 2026-05-04 03:06 491K
20260504T00Z_MSC_RDPS_Albedo_Sfc_RLatLon0.09_PT081H.grib2 2026-05-04 03:06 159K
20260504T00Z_MSC_RDPS_CAPE_Sfc_RLatLon0.09_PT081H.grib2 2026-05-04 03:06 1.6M
20260504T00Z_MSC_RDPS_CIN_Sfc_RLatLon0.09_PT081H.grib2 2026-05-04 03:06 1.1M
20260504T00Z_MSC_RDPS_CloudWater_EAtm_RLatLon0.09_PT081H.grib2 2026-05-04 03:06 222K
20260504T00Z_MSC_RDPS_ConvectivePrecip-Accum_Sfc_RLatLon0.09_PT081H.grib2 2026-05-04 03:06 1.3M
20260504T00Z_MSC_RDPS_DewPointDepression_AGL-2m_RLatLon0.09_PT081H.grib2 2026-05-04 03:06 398K
20260504T00Z_MSC_RDPS_DewPointDepression_IsbL-0001_RLatLon0.09_PT081H.grib2 2026-05-04 03:06 193
20260504T00Z_MSC_RDPS_DewPointDepression_IsbL-0005_RLatLon0.09_PT081H.grib2 2026-05-04 03:06 193
20260504T00Z_MSC_RDPS_DewPointDepression_IsbL-0010_RLatLon0.09_PT081H.grib2 2026-05-04 03:06 193
20260504T00Z_MSC_RDPS_DewPointDepression_IsbL-0020_RLatLon0.09_PT081H.grib2 2026-05-04 03:06 193
20260504T00Z_MSC_RDPS_DewPointDepression_IsbL-0030_RLatLon0.09_PT081H.grib2 2026-05-04 03:06 193
20260504T00Z_MSC_RDPS_DewPointDepression_IsbL-0050_RLatLon0.09_PT081H.grib2 2026-05-04 03:06 79K
20260504T00Z_MSC_RDPS_DewPointDepression_IsbL-0100_RLatLon0.09_PT081H.grib2 2026-05-04 03:06 112K
20260504T00Z_MSC_RDPS_DewPointDepression_IsbL-0150_RLatLon0.09_PT081H.grib2 2026-05-04 03:06 136K
20260504T00Z_MSC_RDPS_DewPointDepression_IsbL-0175_RLatLon0.09_PT081H.grib2 2026-05-04 03:06 179K
20260504T00Z_MSC_RDPS_DewPointDepression_IsbL-0200_RLatLon0.09_PT081H.grib2 2026-05-04 03:06 219K
20260504T00Z_MSC_RDPS_DewPointDepression_IsbL-0225_RLatLon0.09_PT081H.grib2 2026-05-04 03:06 253K
20260504T00Z_MSC_RDPS_DewPointDepression_IsbL-0250_RLatLon0.09_PT081H.grib2 2026-05-04 03:06 297K
20260504T00Z_MSC_RDPS_DewPointDepression_IsbL-0275_RLatLon0.09_PT081H.grib2 2026-05-04 03:06 308K
20260504T00Z_MSC_RDPS_DewPointDepression_IsbL-0300_RLatLon0.09_PT081H.grib2 2026-05-04 03:06 326K
20260504T00Z_MSC_RDPS_DewPointDepression_IsbL-0350_RLatLon0.09_PT081H.grib2 2026-05-04 03:06 331K
20260504T00Z_MSC_RDPS_DewPointDepression_IsbL-0400_RLatLon0.09_PT081H.grib2 2026-05-04 03:06 338K
20260504T00Z_MSC_RDPS_DewPointDepression_IsbL-0450_RLatLon0.09_PT081H.grib2 2026-05-04 03:06 344K
20260504T00Z_MSC_RDPS_DewPointDepression_IsbL-0500_RLatLon0.09_PT081H.grib2 2026-05-04 03:06 349K
20260504T00Z_MSC_RDPS_DewPointDepression_IsbL-0550_RLatLon0.09_PT081H.grib2 2026-05-04 03:06 358K
20260504T00Z_MSC_RDPS_DewPointDepression_IsbL-0600_RLatLon0.09_PT081H.grib2 2026-05-04 03:06 365K
20260504T00Z_MSC_RDPS_DewPointDepression_IsbL-0650_RLatLon0.09_PT081H.grib2 2026-05-04 03:06 368K
20260504T00Z_MSC_RDPS_DewPointDepression_IsbL-0700_RLatLon0.09_PT081H.grib2 2026-05-04 03:06 375K
20260504T00Z_MSC_RDPS_DewPointDepression_IsbL-0750_RLatLon0.09_PT081H.grib2 2026-05-04 03:06 398K
20260504T00Z_MSC_RDPS_DewPointDepression_IsbL-0800_RLatLon0.09_PT081H.grib2 2026-05-04 03:06 442K
20260504T00Z_MSC_RDPS_DewPointDepression_IsbL-0850_RLatLon0.09_PT081H.grib2 2026-05-04 03:06 481K
20260504T00Z_MSC_RDPS_DewPointDepression_IsbL-0875_RLatLon0.09_PT081H.grib2 2026-05-04 03:06 481K
20260504T00Z_MSC_RDPS_DewPointDepression_IsbL-0900_RLatLon0.09_PT081H.grib2 2026-05-04 03:06 470K
20260504T00Z_MSC_RDPS_DewPointDepression_IsbL-0925_RLatLon0.09_PT081H.grib2 2026-05-04 03:06 455K
20260504T00Z_MSC_RDPS_DewPointDepression_IsbL-0950_RLatLon0.09_PT081H.grib2 2026-05-04 03:06 443K
20260504T00Z_MSC_RDPS_DewPointDepression_IsbL-0970_RLatLon0.09_PT081H.grib2 2026-05-04 03:06 436K
20260504T00Z_MSC_RDPS_DewPointDepression_IsbL-0985_RLatLon0.09_PT081H.grib2 2026-05-04 03:06 433K
20260504T00Z_MSC_RDPS_DewPointDepression_IsbL-1000_RLatLon0.09_PT081H.grib2 2026-05-04 03:06 430K
20260504T00Z_MSC_RDPS_DewPointDepression_IsbL-1015_RLatLon0.09_PT081H.grib2 2026-05-04 03:06 420K
20260504T00Z_MSC_RDPS_DewPoint_AGL-2m_RLatLon0.09_PT081H.grib2 2026-05-04 03:06 311K
20260504T00Z_MSC_RDPS_DownwardLongwaveRadiationFlux-Accum_Sfc_RLatLon0.09_PT081H.grib2 2026-05-04 03:06 442K
20260504T00Z_MSC_RDPS_DownwardShortwaveRadiationFlux-Accum_NTAtm_RLatLon0.09_PT081H.grib2 2026-05-04 03:06 108K
20260504T00Z_MSC_RDPS_DownwardShortwaveRadiationFlux-Accum_Sfc_RLatLon0.09_PT081H.grib2 2026-05-04 03:06 640K
20260504T00Z_MSC_RDPS_FreezingRain-Accum1h_Sfc_RLatLon0.09_PT081H.grib2 2026-05-04 03:06 33K
20260504T00Z_MSC_RDPS_FreezingRain-Accum3h_Sfc_RLatLon0.09_PT081H.grib2 2026-05-04 03:06 37K
20260504T00Z_MSC_RDPS_FreezingRain-Accum_Sfc_RLatLon0.09_PT081H.grib2 2026-05-04 03:06 221K
20260504T00Z_MSC_RDPS_GeopotentialHeight_IsbL-0001_RLatLon0.09_PT081H.grib2 2026-05-04 03:06 240K
20260504T00Z_MSC_RDPS_GeopotentialHeight_IsbL-0005_RLatLon0.09_PT081H.grib2 2026-05-04 03:06 337K
20260504T00Z_MSC_RDPS_GeopotentialHeight_IsbL-0010_RLatLon0.09_PT081H.grib2 2026-05-04 03:06 338K
20260504T00Z_MSC_RDPS_GeopotentialHeight_IsbL-0020_RLatLon0.09_PT081H.grib2 2026-05-04 03:06 305K
20260504T00Z_MSC_RDPS_GeopotentialHeight_IsbL-0030_RLatLon0.09_PT081H.grib2 2026-05-04 03:06 403K
20260504T00Z_MSC_RDPS_GeopotentialHeight_IsbL-0050_RLatLon0.09_PT081H.grib2 2026-05-04 03:06 308K
20260504T00Z_MSC_RDPS_GeopotentialHeight_IsbL-0100_RLatLon0.09_PT081H.grib2 2026-05-04 03:06 285K
20260504T00Z_MSC_RDPS_GeopotentialHeight_IsbL-0150_RLatLon0.09_PT081H.grib2 2026-05-04 03:06 227K
20260504T00Z_MSC_RDPS_GeopotentialHeight_IsbL-0175_RLatLon0.09_PT081H.grib2 2026-05-04 03:06 230K
20260504T00Z_MSC_RDPS_GeopotentialHeight_IsbL-0200_RLatLon0.09_PT081H.grib2 2026-05-04 03:06 232K
20260504T00Z_MSC_RDPS_GeopotentialHeight_IsbL-0225_RLatLon0.09_PT081H.grib2 2026-05-04 03:06 234K
20260504T00Z_MSC_RDPS_GeopotentialHeight_IsbL-0250_RLatLon0.09_PT081H.grib2 2026-05-04 03:06 235K
20260504T00Z_MSC_RDPS_GeopotentialHeight_IsbL-0275_RLatLon0.09_PT081H.grib2 2026-05-04 03:06 234K
20260504T00Z_MSC_RDPS_GeopotentialHeight_IsbL-0300_RLatLon0.09_PT081H.grib2 2026-05-04 03:06 235K
20260504T00Z_MSC_RDPS_GeopotentialHeight_IsbL-0350_RLatLon0.09_PT081H.grib2 2026-05-04 03:06 231K
20260504T00Z_MSC_RDPS_GeopotentialHeight_IsbL-0400_RLatLon0.09_PT081H.grib2 2026-05-04 03:06 227K
20260504T00Z_MSC_RDPS_GeopotentialHeight_IsbL-0450_RLatLon0.09_PT081H.grib2 2026-05-04 03:06 294K
20260504T00Z_MSC_RDPS_GeopotentialHeight_IsbL-0500_RLatLon0.09_PT081H.grib2 2026-05-04 03:06 288K
20260504T00Z_MSC_RDPS_GeopotentialHeight_IsbL-0550_RLatLon0.09_PT081H.grib2 2026-05-04 03:06 285K
20260504T00Z_MSC_RDPS_GeopotentialHeight_IsbL-0600_RLatLon0.09_PT081H.grib2 2026-05-04 03:06 282K
20260504T00Z_MSC_RDPS_GeopotentialHeight_IsbL-0650_RLatLon0.09_PT081H.grib2 2026-05-04 03:06 251K
20260504T00Z_MSC_RDPS_GeopotentialHeight_IsbL-0700_RLatLon0.09_PT081H.grib2 2026-05-04 03:06 331K
20260504T00Z_MSC_RDPS_GeopotentialHeight_IsbL-0750_RLatLon0.09_PT081H.grib2 2026-05-04 03:06 334K
20260504T00Z_MSC_RDPS_GeopotentialHeight_IsbL-0800_RLatLon0.09_PT081H.grib2 2026-05-04 03:06 375K
20260504T00Z_MSC_RDPS_GeopotentialHeight_IsbL-0850_RLatLon0.09_PT081H.grib2 2026-05-04 03:06 387K
20260504T00Z_MSC_RDPS_GeopotentialHeight_IsbL-0875_RLatLon0.09_PT081H.grib2 2026-05-04 03:06 391K
20260504T00Z_MSC_RDPS_GeopotentialHeight_IsbL-0900_RLatLon0.09_PT081H.grib2 2026-05-04 03:06 393K
20260504T00Z_MSC_RDPS_GeopotentialHeight_IsbL-0925_RLatLon0.09_PT081H.grib2 2026-05-04 03:06 396K
20260504T00Z_MSC_RDPS_GeopotentialHeight_IsbL-0950_RLatLon0.09_PT081H.grib2 2026-05-04 03:06 398K
20260504T00Z_MSC_RDPS_GeopotentialHeight_IsbL-0970_RLatLon0.09_PT081H.grib2 2026-05-04 03:06 403K
20260504T00Z_MSC_RDPS_GeopotentialHeight_IsbL-0985_RLatLon0.09_PT081H.grib2 2026-05-04 03:06 411K
20260504T00Z_MSC_RDPS_GeopotentialHeight_IsbL-1000_RLatLon0.09_PT081H.grib2 2026-05-04 03:06 424K
20260504T00Z_MSC_RDPS_GeopotentialHeight_IsbL-1015_RLatLon0.09_PT081H.grib2 2026-05-04 03:06 440K
20260504T00Z_MSC_RDPS_Humidex_Sfc_RLatLon0.09_PT081H.grib2 2026-05-04 03:06 2.4M
20260504T00Z_MSC_RDPS_IcePellets-Accum1h_Sfc_RLatLon0.09_PT081H.grib2 2026-05-04 03:06 4.8K
20260504T00Z_MSC_RDPS_IcePellets-Accum3h_Sfc_RLatLon0.09_PT081H.grib2 2026-05-04 03:06 5.9K
20260504T00Z_MSC_RDPS_IcePellets-Accum_Sfc_RLatLon0.09_PT081H.grib2 2026-05-04 03:06 50K
20260504T00Z_MSC_RDPS_KIndex_Sfc_RLatLon0.09_PT081H.grib2 2026-05-04 03:06 2.5M
20260504T00Z_MSC_RDPS_LatentHeatNetFlux_Sfc_RLatLon0.09_PT081H.grib2 2026-05-04 03:06 407K
20260504T00Z_MSC_RDPS_LiftedIndex-MU-VT_IsbL-0500_RLatLon0.09_PT081H.grib2 2026-05-04 03:06 2.4M
20260504T00Z_MSC_RDPS_NetLongwaveRadiationFlux-Accum_Sfc_RLatLon0.09_PT081H.grib2 2026-05-04 03:06 491K
20260504T00Z_MSC_RDPS_NetShortwaveRadiationFlux-Accum_Sfc_RLatLon0.09_PT081H.grib2 2026-05-04 03:06 637K
20260504T00Z_MSC_RDPS_PlanetaryBoundaryLayerHeight_Sfc_RLatLon0.09_PT081H.grib2 2026-05-04 03:06 1.1M
20260504T00Z_MSC_RDPS_Precip-Accum1h_Sfc_RLatLon0.09_PT081H.grib2 2026-05-04 03:06 1.4M
20260504T00Z_MSC_RDPS_Precip-Accum3h_Sfc_RLatLon0.09_PT081H.grib2 2026-05-04 03:06 1.5M
20260504T00Z_MSC_RDPS_Precip-Accum_Sfc_RLatLon0.09_PT081H.grib2 2026-05-04 03:06 2.3M
20260504T00Z_MSC_RDPS_PrecipRate_Sfc_RLatLon0.09_PT081H.grib2 2026-05-04 03:06 195K
20260504T00Z_MSC_RDPS_PrecipType-Instant_Sfc_RLatLon0.09_PT081H.grib2 2026-05-04 03:06 592K
20260504T00Z_MSC_RDPS_Pressure-Trend3h_Sfc_RLatLon0.09_PT081H.grib2 2026-05-04 03:06 1.2M
20260504T00Z_MSC_RDPS_Pressure_MSL_RLatLon0.09_PT081H.grib2 2026-05-04 03:06 289K
20260504T00Z_MSC_RDPS_Pressure_PVU-1.5_RLatLon0.09_PT081H.grib2 2026-05-04 03:06 2.5M
20260504T00Z_MSC_RDPS_Pressure_PVU-1_RLatLon0.09_PT081H.grib2 2026-05-04 03:06 2.4M
20260504T00Z_MSC_RDPS_Pressure_PVU-2_RLatLon0.09_PT081H.grib2 2026-05-04 03:06 2.4M
20260504T00Z_MSC_RDPS_Pressure_Sfc_RLatLon0.09_PT081H.grib2 2026-05-04 03:06 498K
20260504T00Z_MSC_RDPS_RadiativeTemp_Sfc_RLatLon0.09_PT081H.grib2 2026-05-04 03:06 305K
20260504T00Z_MSC_RDPS_Rain-Accum1h_Sfc_RLatLon0.09_PT081H.grib2 2026-05-04 03:06 674K
20260504T00Z_MSC_RDPS_Rain-Accum3h_Sfc_RLatLon0.09_PT081H.grib2 2026-05-04 03:06 756K
20260504T00Z_MSC_RDPS_Rain-Accum_Sfc_RLatLon0.09_PT081H.grib2 2026-05-04 03:06 1.9M
20260504T00Z_MSC_RDPS_RelativeHumidity_AGL-2m_RLatLon0.09_PT081H.grib2 2026-05-04 03:06 1.0M
20260504T00Z_MSC_RDPS_RelativeHumidity_IsbL-0010_RLatLon0.09_PT081H.grib2 2026-05-04 03:06 688K
20260504T00Z_MSC_RDPS_RelativeHumidity_IsbL-0020_RLatLon0.09_PT081H.grib2 2026-05-04 03:06 642K
20260504T00Z_MSC_RDPS_RelativeHumidity_IsbL-0030_RLatLon0.09_PT081H.grib2 2026-05-04 03:06 598K
20260504T00Z_MSC_RDPS_RelativeHumidity_IsbL-0050_RLatLon0.09_PT081H.grib2 2026-05-04 03:06 353K
20260504T00Z_MSC_RDPS_RelativeHumidity_IsbL-0100_RLatLon0.09_PT081H.grib2 2026-05-04 03:06 271K
20260504T00Z_MSC_RDPS_RelativeHumidity_IsbL-0150_RLatLon0.09_PT081H.grib2 2026-05-04 03:06 407K
20260504T00Z_MSC_RDPS_RelativeHumidity_IsbL-0175_RLatLon0.09_PT081H.grib2 2026-05-04 03:06 465K
20260504T00Z_MSC_RDPS_RelativeHumidity_IsbL-0200_RLatLon0.09_PT081H.grib2 2026-05-04 03:06 544K
20260504T00Z_MSC_RDPS_RelativeHumidity_IsbL-0225_RLatLon0.09_PT081H.grib2 2026-05-04 03:06 612K
20260504T00Z_MSC_RDPS_RelativeHumidity_IsbL-0250_RLatLon0.09_PT081H.grib2 2026-05-04 03:06 676K
20260504T00Z_MSC_RDPS_RelativeHumidity_IsbL-0275_RLatLon0.09_PT081H.grib2 2026-05-04 03:06 702K
20260504T00Z_MSC_RDPS_RelativeHumidity_IsbL-0300_RLatLon0.09_PT081H.grib2 2026-05-04 03:06 749K
20260504T00Z_MSC_RDPS_RelativeHumidity_IsbL-0350_RLatLon0.09_PT081H.grib2 2026-05-04 03:06 775K
20260504T00Z_MSC_RDPS_RelativeHumidity_IsbL-0400_RLatLon0.09_PT081H.grib2 2026-05-04 03:06 787K
20260504T00Z_MSC_RDPS_RelativeHumidity_IsbL-0450_RLatLon0.09_PT081H.grib2 2026-05-04 03:06 791K
20260504T00Z_MSC_RDPS_RelativeHumidity_IsbL-0500_RLatLon0.09_PT081H.grib2 2026-05-04 03:06 797K
20260504T00Z_MSC_RDPS_RelativeHumidity_IsbL-0550_RLatLon0.09_PT081H.grib2 2026-05-04 03:06 813K
20260504T00Z_MSC_RDPS_RelativeHumidity_IsbL-0600_RLatLon0.09_PT081H.grib2 2026-05-04 03:06 828K
20260504T00Z_MSC_RDPS_RelativeHumidity_IsbL-0650_RLatLon0.09_PT081H.grib2 2026-05-04 03:06 834K
20260504T00Z_MSC_RDPS_RelativeHumidity_IsbL-0700_RLatLon0.09_PT081H.grib2 2026-05-04 03:06 854K
20260504T00Z_MSC_RDPS_RelativeHumidity_IsbL-0750_RLatLon0.09_PT081H.grib2 2026-05-04 03:06 900K
20260504T00Z_MSC_RDPS_RelativeHumidity_IsbL-0800_RLatLon0.09_PT081H.grib2 2026-05-04 03:06 1.0M
20260504T00Z_MSC_RDPS_RelativeHumidity_IsbL-0850_RLatLon0.09_PT081H.grib2 2026-05-04 03:06 1.0M
20260504T00Z_MSC_RDPS_RelativeHumidity_IsbL-0875_RLatLon0.09_PT081H.grib2 2026-05-04 03:06 1.1M
20260504T00Z_MSC_RDPS_RelativeHumidity_IsbL-0900_RLatLon0.09_PT081H.grib2 2026-05-04 03:06 1.1M
20260504T00Z_MSC_RDPS_RelativeHumidity_IsbL-0925_RLatLon0.09_PT081H.grib2 2026-05-04 03:06 1.1M
20260504T00Z_MSC_RDPS_RelativeHumidity_IsbL-0950_RLatLon0.09_PT081H.grib2 2026-05-04 03:06 1.1M
20260504T00Z_MSC_RDPS_RelativeHumidity_IsbL-0970_RLatLon0.09_PT081H.grib2 2026-05-04 03:06 1.1M
20260504T00Z_MSC_RDPS_RelativeHumidity_IsbL-0985_RLatLon0.09_PT081H.grib2 2026-05-04 03:06 1.0M
20260504T00Z_MSC_RDPS_RelativeHumidity_IsbL-1000_RLatLon0.09_PT081H.grib2 2026-05-04 03:06 1.0M
20260504T00Z_MSC_RDPS_RelativeHumidity_IsbL-1015_RLatLon0.09_PT081H.grib2 2026-05-04 03:06 1.0M
20260504T00Z_MSC_RDPS_Runoff-Accum_Sfc_RLatLon0.09_PT081H.grib2 2026-05-04 03:06 72K
20260504T00Z_MSC_RDPS_SWEATIndex_Sfc_RLatLon0.09_PT081H.grib2 2026-05-04 03:06 2.4M
20260504T00Z_MSC_RDPS_SeeingIndex_EAtm_RLatLon0.09_PT081H.grib2 2026-05-04 03:06 1.0M
20260504T00Z_MSC_RDPS_SensibleHeatNetFlux_Sfc_RLatLon0.09_PT081H.grib2 2026-05-04 03:06 288K
20260504T00Z_MSC_RDPS_ShowalterIndex_IsbL-0500_RLatLon0.09_PT081H.grib2 2026-05-04 03:06 2.6M
20260504T00Z_MSC_RDPS_SkyTransparencyIndex_EAtm_RLatLon0.09_PT081H.grib2 2026-05-04 03:06 729K
20260504T00Z_MSC_RDPS_Snow-Accum1h_Sfc_RLatLon0.09_PT081H.grib2 2026-05-04 03:06 528K
20260504T00Z_MSC_RDPS_Snow-Accum3h_Sfc_RLatLon0.09_PT081H.grib2 2026-05-04 03:06 459K
20260504T00Z_MSC_RDPS_Snow-Accum_Sfc_RLatLon0.09_PT081H.grib2 2026-05-04 03:06 806K
20260504T00Z_MSC_RDPS_SnowDensity_Sfc_RLatLon0.09_PT081H.grib2 2026-05-04 03:06 175K
20260504T00Z_MSC_RDPS_SnowDepth_Sfc_RLatLon0.09_PT081H.grib2 2026-05-04 03:06 649K
20260504T00Z_MSC_RDPS_SoilTemp_DBS-0to10cm_RLatLon0.09_PT081H.grib2 2026-05-04 03:06 247K
20260504T00Z_MSC_RDPS_SoilTemp_Sfc_RLatLon0.09_PT081H.grib2 2026-05-04 03:06 272K
20260504T00Z_MSC_RDPS_SoilVolumetricIceContent_Sfc_RLatLon0.09_PT081H.grib2 2026-05-04 03:06 150K
20260504T00Z_MSC_RDPS_SoilVolumetricWaterContent_DBS-0to10cm_RLatLon0.09_PT081H.grib2 2026-05-04 03:06 284K
20260504T00Z_MSC_RDPS_SoilVolumetricWaterContent_DBS-0to1cm_RLatLon0.09_PT081H.grib2 2026-05-04 03:06 346K
20260504T00Z_MSC_RDPS_SpecificHumidity_AGL-120m_RLatLon0.09_PT081H.grib2 2026-05-04 03:06 498K
20260504T00Z_MSC_RDPS_SpecificHumidity_AGL-2m_RLatLon0.09_PT081H.grib2 2026-05-04 03:06 665K
20260504T00Z_MSC_RDPS_SpecificHumidity_AGL-40m_RLatLon0.09_PT081H.grib2 2026-05-04 03:06 503K
20260504T00Z_MSC_RDPS_SpecificHumidity_AGL-80m_RLatLon0.09_PT081H.grib2 2026-05-04 03:06 499K
20260504T00Z_MSC_RDPS_SpecificHumidity_IsbL-0001_RLatLon0.09_PT081H.grib2 2026-05-04 03:06 369K
20260504T00Z_MSC_RDPS_SpecificHumidity_IsbL-0005_RLatLon0.09_PT081H.grib2 2026-05-04 03:06 362K
20260504T00Z_MSC_RDPS_SpecificHumidity_IsbL-0010_RLatLon0.09_PT081H.grib2 2026-05-04 03:06 395K
20260504T00Z_MSC_RDPS_SpecificHumidity_IsbL-0020_RLatLon0.09_PT081H.grib2 2026-05-04 03:06 370K
20260504T00Z_MSC_RDPS_SpecificHumidity_IsbL-0030_RLatLon0.09_PT081H.grib2 2026-05-04 03:06 356K
20260504T00Z_MSC_RDPS_SpecificHumidity_IsbL-0050_RLatLon0.09_PT081H.grib2 2026-05-04 03:06 434K
20260504T00Z_MSC_RDPS_SpecificHumidity_IsbL-0100_RLatLon0.09_PT081H.grib2 2026-05-04 03:06 411K
20260504T00Z_MSC_RDPS_SpecificHumidity_IsbL-0150_RLatLon0.09_PT081H.grib2 2026-05-04 03:06 474K
20260504T00Z_MSC_RDPS_SpecificHumidity_IsbL-0175_RLatLon0.09_PT081H.grib2 2026-05-04 03:06 435K
20260504T00Z_MSC_RDPS_SpecificHumidity_IsbL-0200_RLatLon0.09_PT081H.grib2 2026-05-04 03:06 465K
20260504T00Z_MSC_RDPS_SpecificHumidity_IsbL-0225_RLatLon0.09_PT081H.grib2 2026-05-04 03:06 448K
20260504T00Z_MSC_RDPS_SpecificHumidity_IsbL-0250_RLatLon0.09_PT081H.grib2 2026-05-04 03:06 551K
20260504T00Z_MSC_RDPS_SpecificHumidity_IsbL-0275_RLatLon0.09_PT081H.grib2 2026-05-04 03:06 468K
20260504T00Z_MSC_RDPS_SpecificHumidity_IsbL-0300_RLatLon0.09_PT081H.grib2 2026-05-04 03:06 541K
20260504T00Z_MSC_RDPS_SpecificHumidity_IsbL-0350_RLatLon0.09_PT081H.grib2 2026-05-04 03:06 536K
20260504T00Z_MSC_RDPS_SpecificHumidity_IsbL-0400_RLatLon0.09_PT081H.grib2 2026-05-04 03:06 515K
20260504T00Z_MSC_RDPS_SpecificHumidity_IsbL-0450_RLatLon0.09_PT081H.grib2 2026-05-04 03:06 567K
20260504T00Z_MSC_RDPS_SpecificHumidity_IsbL-0500_RLatLon0.09_PT081H.grib2 2026-05-04 03:06 502K
20260504T00Z_MSC_RDPS_SpecificHumidity_IsbL-0550_RLatLon0.09_PT081H.grib2 2026-05-04 03:06 558K
20260504T00Z_MSC_RDPS_SpecificHumidity_IsbL-0600_RLatLon0.09_PT081H.grib2 2026-05-04 03:06 624K
20260504T00Z_MSC_RDPS_SpecificHumidity_IsbL-0650_RLatLon0.09_PT081H.grib2 2026-05-04 03:06 537K
20260504T00Z_MSC_RDPS_SpecificHumidity_IsbL-0700_RLatLon0.09_PT081H.grib2 2026-05-04 03:06 576K
20260504T00Z_MSC_RDPS_SpecificHumidity_IsbL-0750_RLatLon0.09_PT081H.grib2 2026-05-04 03:06 633K
20260504T00Z_MSC_RDPS_SpecificHumidity_IsbL-0800_RLatLon0.09_PT081H.grib2 2026-05-04 03:06 726K
20260504T00Z_MSC_RDPS_SpecificHumidity_IsbL-0850_RLatLon0.09_PT081H.grib2 2026-05-04 03:06 812K
20260504T00Z_MSC_RDPS_SpecificHumidity_IsbL-0875_RLatLon0.09_PT081H.grib2 2026-05-04 03:06 840K
20260504T00Z_MSC_RDPS_SpecificHumidity_IsbL-0900_RLatLon0.09_PT081H.grib2 2026-05-04 03:06 852K
20260504T00Z_MSC_RDPS_SpecificHumidity_IsbL-0925_RLatLon0.09_PT081H.grib2 2026-05-04 03:06 853K
20260504T00Z_MSC_RDPS_SpecificHumidity_IsbL-0950_RLatLon0.09_PT081H.grib2 2026-05-04 03:06 849K
20260504T00Z_MSC_RDPS_SpecificHumidity_IsbL-0970_RLatLon0.09_PT081H.grib2 2026-05-04 03:06 700K
20260504T00Z_MSC_RDPS_SpecificHumidity_IsbL-0985_RLatLon0.09_PT081H.grib2 2026-05-04 03:06 692K
20260504T00Z_MSC_RDPS_SpecificHumidity_IsbL-1000_RLatLon0.09_PT081H.grib2 2026-05-04 03:06 688K
20260504T00Z_MSC_RDPS_SpecificHumidity_IsbL-1015_RLatLon0.09_PT081H.grib2 2026-05-04 03:06 678K
20260504T00Z_MSC_RDPS_SpecificHumidity_Sfc_RLatLon0.09_PT081H.grib2 2026-05-04 03:06 300K
20260504T00Z_MSC_RDPS_StormRelativeHelicity_EtaL-10000_RLatLon0.09_PT081H.grib2 2026-05-04 03:06 1.2M
20260504T00Z_MSC_RDPS_StormSeverityIndex_EtaL-10000_RLatLon0.09_PT081H.grib2 2026-05-04 03:06 1.1M
20260504T00Z_MSC_RDPS_Thickness_IsbL-0850to0700_RLatLon0.09_PT081H.grib2 2026-05-04 03:06 173K
20260504T00Z_MSC_RDPS_Thickness_IsbL-1000to0500_RLatLon0.09_PT081H.grib2 2026-05-04 03:06 191K
20260504T00Z_MSC_RDPS_Thickness_IsbL-1000to0850_RLatLon0.09_PT081H.grib2 2026-05-04 03:06 257K
20260504T00Z_MSC_RDPS_TotalCloudCover_Sfc_RLatLon0.09_PT081H.grib2 2026-05-04 03:06 681K
20260504T00Z_MSC_RDPS_TotalTotalsIndex_Sfc_RLatLon0.09_PT081H.grib2 2026-05-04 03:06 2.5M
20260504T00Z_MSC_RDPS_UVIndex-ClearSky_Sfc_RLatLon0.09_PT081H.grib2 2026-05-04 03:06 86K
20260504T00Z_MSC_RDPS_UVIndex_Sfc_RLatLon0.09_PT081H.grib2 2026-05-04 03:06 176K
20260504T00Z_MSC_RDPS_UpwardLongwaveRadiationFlux_NTAtm_RLatLon0.09_PT081H.grib2 2026-05-04 03:06 486K
20260504T00Z_MSC_RDPS_UpwardShortwaveRadiationFlux_NTAtm_RLatLon0.09_PT081H.grib2 2026-05-04 03:06 178K
20260504T00Z_MSC_RDPS_VerticalVelocity_IsbL-0250_RLatLon0.09_PT081H.grib2 2026-05-04 03:06 716K
20260504T00Z_MSC_RDPS_VerticalVelocity_IsbL-0500_RLatLon0.09_PT081H.grib2 2026-05-04 03:06 712K
20260504T00Z_MSC_RDPS_VerticalVelocity_IsbL-0700_RLatLon0.09_PT081H.grib2 2026-05-04 03:06 582K
20260504T00Z_MSC_RDPS_VerticalVelocity_IsbL-0850_RLatLon0.09_PT081H.grib2 2026-05-04 03:06 685K
20260504T00Z_MSC_RDPS_VerticalWindShear_EtaL-6500_RLatLon0.09_PT081H.grib2 2026-05-04 03:06 1.2M
20260504T00Z_MSC_RDPS_WindChill_Sfc_RLatLon0.09_PT081H.grib2 2026-05-04 03:06 1.2M
20260504T00Z_MSC_RDPS_WindDir_AGL-10m_RLatLon0.09_PT081H.grib2 2026-05-04 03:06 1.0M
20260504T00Z_MSC_RDPS_WindDir_AGL-120m_RLatLon0.09_PT081H.grib2 2026-05-04 03:06 615K
20260504T00Z_MSC_RDPS_WindDir_AGL-40m_RLatLon0.09_PT081H.grib2 2026-05-04 03:06 648K
20260504T00Z_MSC_RDPS_WindDir_AGL-80m_RLatLon0.09_PT081H.grib2 2026-05-04 03:06 628K
20260504T00Z_MSC_RDPS_WindDir_IsbL-0001_RLatLon0.09_PT081H.grib2 2026-05-04 03:06 306K
20260504T00Z_MSC_RDPS_WindDir_IsbL-0005_RLatLon0.09_PT081H.grib2 2026-05-04 03:06 375K
20260504T00Z_MSC_RDPS_WindDir_IsbL-0010_RLatLon0.09_PT081H.grib2 2026-05-04 03:06 380K
20260504T00Z_MSC_RDPS_WindDir_IsbL-0020_RLatLon0.09_PT081H.grib2 2026-05-04 03:06 404K
20260504T00Z_MSC_RDPS_WindDir_IsbL-0030_RLatLon0.09_PT081H.grib2 2026-05-04 03:06 401K
20260504T00Z_MSC_RDPS_WindDir_IsbL-0050_RLatLon0.09_PT081H.grib2 2026-05-04 03:06 426K
20260504T00Z_MSC_RDPS_WindDir_IsbL-0100_RLatLon0.09_PT081H.grib2 2026-05-04 03:06 409K
20260504T00Z_MSC_RDPS_WindDir_IsbL-0150_RLatLon0.09_PT081H.grib2 2026-05-04 03:06 414K
20260504T00Z_MSC_RDPS_WindDir_IsbL-0175_RLatLon0.09_PT081H.grib2 2026-05-04 03:06 434K
20260504T00Z_MSC_RDPS_WindDir_IsbL-0200_RLatLon0.09_PT081H.grib2 2026-05-04 03:06 452K
20260504T00Z_MSC_RDPS_WindDir_IsbL-0225_RLatLon0.09_PT081H.grib2 2026-05-04 03:06 463K
20260504T00Z_MSC_RDPS_WindDir_IsbL-0250_RLatLon0.09_PT081H.grib2 2026-05-04 03:06 459K
20260504T00Z_MSC_RDPS_WindDir_IsbL-0275_RLatLon0.09_PT081H.grib2 2026-05-04 03:06 473K
20260504T00Z_MSC_RDPS_WindDir_IsbL-0300_RLatLon0.09_PT081H.grib2 2026-05-04 03:06 469K
20260504T00Z_MSC_RDPS_WindDir_IsbL-0350_RLatLon0.09_PT081H.grib2 2026-05-04 03:06 499K
20260504T00Z_MSC_RDPS_WindDir_IsbL-0400_RLatLon0.09_PT081H.grib2 2026-05-04 03:06 518K
20260504T00Z_MSC_RDPS_WindDir_IsbL-0450_RLatLon0.09_PT081H.grib2 2026-05-04 03:06 533K
20260504T00Z_MSC_RDPS_WindDir_IsbL-0500_RLatLon0.09_PT081H.grib2 2026-05-04 03:06 550K
20260504T00Z_MSC_RDPS_WindDir_IsbL-0550_RLatLon0.09_PT081H.grib2 2026-05-04 03:06 565K
20260504T00Z_MSC_RDPS_WindDir_IsbL-0600_RLatLon0.09_PT081H.grib2 2026-05-04 03:06 592K
20260504T00Z_MSC_RDPS_WindDir_IsbL-0650_RLatLon0.09_PT081H.grib2 2026-05-04 03:06 631K
20260504T00Z_MSC_RDPS_WindDir_IsbL-0700_RLatLon0.09_PT081H.grib2 2026-05-04 03:06 672K
20260504T00Z_MSC_RDPS_WindDir_IsbL-0750_RLatLon0.09_PT081H.grib2 2026-05-04 03:06 718K
20260504T00Z_MSC_RDPS_WindDir_IsbL-0800_RLatLon0.09_PT081H.grib2 2026-05-04 03:06 793K
20260504T00Z_MSC_RDPS_WindDir_IsbL-0850_RLatLon0.09_PT081H.grib2 2026-05-04 03:06 874K
20260504T00Z_MSC_RDPS_WindDir_IsbL-0875_RLatLon0.09_PT081H.grib2 2026-05-04 03:06 902K
20260504T00Z_MSC_RDPS_WindDir_IsbL-0900_RLatLon0.09_PT081H.grib2 2026-05-04 03:06 917K
20260504T00Z_MSC_RDPS_WindDir_IsbL-0925_RLatLon0.09_PT081H.grib2 2026-05-04 03:06 925K
20260504T00Z_MSC_RDPS_WindDir_IsbL-0950_RLatLon0.09_PT081H.grib2 2026-05-04 03:06 926K
20260504T00Z_MSC_RDPS_WindDir_IsbL-0970_RLatLon0.09_PT081H.grib2 2026-05-04 03:06 932K
20260504T00Z_MSC_RDPS_WindDir_IsbL-0985_RLatLon0.09_PT081H.grib2 2026-05-04 03:06 941K
20260504T00Z_MSC_RDPS_WindDir_IsbL-1000_RLatLon0.09_PT081H.grib2 2026-05-04 03:06 957K
20260504T00Z_MSC_RDPS_WindDir_IsbL-1015_RLatLon0.09_PT081H.grib2 2026-05-04 03:06 1.0M
20260504T00Z_MSC_RDPS_WindGust-Max_AGL-10m_RLatLon0.09_PT081H.grib2 2026-05-04 03:06 1.0M
20260504T00Z_MSC_RDPS_WindGust-Min_AGL-10m_RLatLon0.09_PT081H.grib2 2026-05-04 03:06 965K
20260504T00Z_MSC_RDPS_WindGust_AGL-10m_RLatLon0.09_PT081H.grib2 2026-05-04 03:06 1.0M
20260504T00Z_MSC_RDPS_WindSpeed_AGL-10m_RLatLon0.09_PT081H.grib2 2026-05-04 03:06 840K
20260504T00Z_MSC_RDPS_WindSpeed_AGL-120m_RLatLon0.09_PT081H.grib2 2026-05-04 03:06 540K
20260504T00Z_MSC_RDPS_WindSpeed_AGL-40m_RLatLon0.09_PT081H.grib2 2026-05-04 03:06 542K
20260504T00Z_MSC_RDPS_WindSpeed_AGL-80m_RLatLon0.09_PT081H.grib2 2026-05-04 03:06 541K
20260504T00Z_MSC_RDPS_WindSpeed_IsbL-0001_RLatLon0.09_PT081H.grib2 2026-05-04 03:06 333K
20260504T00Z_MSC_RDPS_WindSpeed_IsbL-0005_RLatLon0.09_PT081H.grib2 2026-05-04 03:06 380K
20260504T00Z_MSC_RDPS_WindSpeed_IsbL-0010_RLatLon0.09_PT081H.grib2 2026-05-04 03:06 396K
20260504T00Z_MSC_RDPS_WindSpeed_IsbL-0020_RLatLon0.09_PT081H.grib2 2026-05-04 03:06 421K
20260504T00Z_MSC_RDPS_WindSpeed_IsbL-0030_RLatLon0.09_PT081H.grib2 2026-05-04 03:06 316K
20260504T00Z_MSC_RDPS_WindSpeed_IsbL-0050_RLatLon0.09_PT081H.grib2 2026-05-04 03:06 345K
20260504T00Z_MSC_RDPS_WindSpeed_IsbL-0100_RLatLon0.09_PT081H.grib2 2026-05-04 03:06 465K
20260504T00Z_MSC_RDPS_WindSpeed_IsbL-0150_RLatLon0.09_PT081H.grib2 2026-05-04 03:06 394K
20260504T00Z_MSC_RDPS_WindSpeed_IsbL-0175_RLatLon0.09_PT081H.grib2 2026-05-04 03:06 418K
20260504T00Z_MSC_RDPS_WindSpeed_IsbL-0200_RLatLon0.09_PT081H.grib2 2026-05-04 03:06 434K
20260504T00Z_MSC_RDPS_WindSpeed_IsbL-0225_RLatLon0.09_PT081H.grib2 2026-05-04 03:06 439K
20260504T00Z_MSC_RDPS_WindSpeed_IsbL-0250_RLatLon0.09_PT081H.grib2 2026-05-04 03:06 441K
20260504T00Z_MSC_RDPS_WindSpeed_IsbL-0275_RLatLon0.09_PT081H.grib2 2026-05-04 03:06 459K
20260504T00Z_MSC_RDPS_WindSpeed_IsbL-0300_RLatLon0.09_PT081H.grib2 2026-05-04 03:06 458K
20260504T00Z_MSC_RDPS_WindSpeed_IsbL-0350_RLatLon0.09_PT081H.grib2 2026-05-04 03:06 475K
20260504T00Z_MSC_RDPS_WindSpeed_IsbL-0400_RLatLon0.09_PT081H.grib2 2026-05-04 03:06 462K
20260504T00Z_MSC_RDPS_WindSpeed_IsbL-0450_RLatLon0.09_PT081H.grib2 2026-05-04 03:06 458K
20260504T00Z_MSC_RDPS_WindSpeed_IsbL-0500_RLatLon0.09_PT081H.grib2 2026-05-04 03:06 574K
20260504T00Z_MSC_RDPS_WindSpeed_IsbL-0550_RLatLon0.09_PT081H.grib2 2026-05-04 03:06 574K
20260504T00Z_MSC_RDPS_WindSpeed_IsbL-0600_RLatLon0.09_PT081H.grib2 2026-05-04 03:06 581K
20260504T00Z_MSC_RDPS_WindSpeed_IsbL-0650_RLatLon0.09_PT081H.grib2 2026-05-04 03:06 644K
20260504T00Z_MSC_RDPS_WindSpeed_IsbL-0700_RLatLon0.09_PT081H.grib2 2026-05-04 03:06 668K
20260504T00Z_MSC_RDPS_WindSpeed_IsbL-0750_RLatLon0.09_PT081H.grib2 2026-05-04 03:06 699K
20260504T00Z_MSC_RDPS_WindSpeed_IsbL-0800_RLatLon0.09_PT081H.grib2 2026-05-04 03:06 752K
20260504T00Z_MSC_RDPS_WindSpeed_IsbL-0850_RLatLon0.09_PT081H.grib2 2026-05-04 03:06 820K
20260504T00Z_MSC_RDPS_WindSpeed_IsbL-0875_RLatLon0.09_PT081H.grib2 2026-05-04 03:06 844K
20260504T00Z_MSC_RDPS_WindSpeed_IsbL-0900_RLatLon0.09_PT081H.grib2 2026-05-04 03:06 858K
20260504T00Z_MSC_RDPS_WindSpeed_IsbL-0925_RLatLon0.09_PT081H.grib2 2026-05-04 03:06 866K
20260504T00Z_MSC_RDPS_WindSpeed_IsbL-0950_RLatLon0.09_PT081H.grib2 2026-05-04 03:06 864K
20260504T00Z_MSC_RDPS_WindSpeed_IsbL-0970_RLatLon0.09_PT081H.grib2 2026-05-04 03:06 862K
20260504T00Z_MSC_RDPS_WindSpeed_IsbL-0985_RLatLon0.09_PT081H.grib2 2026-05-04 03:06 854K
20260504T00Z_MSC_RDPS_WindSpeed_IsbL-1000_RLatLon0.09_PT081H.grib2 2026-05-04 03:06 849K
20260504T00Z_MSC_RDPS_WindSpeed_IsbL-1015_RLatLon0.09_PT081H.grib2 2026-05-04 03:06 840K
20260504T00Z_MSC_RDPS_WindU_AGL-10m_RLatLon0.09_PT081H.grib2 2026-05-04 03:06 433K
20260504T00Z_MSC_RDPS_WindU_AGL-120m_RLatLon0.09_PT081H.grib2 2026-05-04 03:06 420K
20260504T00Z_MSC_RDPS_WindU_AGL-40m_RLatLon0.09_PT081H.grib2 2026-05-04 03:06 540K
20260504T00Z_MSC_RDPS_WindU_AGL-80m_RLatLon0.09_PT081H.grib2 2026-05-04 03:06 538K
20260504T00Z_MSC_RDPS_WindU_IsbL-0001_RLatLon0.09_PT081H.grib2 2026-05-04 03:06 293K
20260504T00Z_MSC_RDPS_WindU_IsbL-0005_RLatLon0.09_PT081H.grib2 2026-05-04 03:06 284K
20260504T00Z_MSC_RDPS_WindU_IsbL-0010_RLatLon0.09_PT081H.grib2 2026-05-04 03:06 297K
20260504T00Z_MSC_RDPS_WindU_IsbL-0020_RLatLon0.09_PT081H.grib2 2026-05-04 03:06 317K
20260504T00Z_MSC_RDPS_WindU_IsbL-0030_RLatLon0.09_PT081H.grib2 2026-05-04 03:06 351K
20260504T00Z_MSC_RDPS_WindU_IsbL-0050_RLatLon0.09_PT081H.grib2 2026-05-04 03:06 377K
20260504T00Z_MSC_RDPS_WindU_IsbL-0100_RLatLon0.09_PT081H.grib2 2026-05-04 03:06 422K
20260504T00Z_MSC_RDPS_WindU_IsbL-0150_RLatLon0.09_PT081H.grib2 2026-05-04 03:06 388K
20260504T00Z_MSC_RDPS_WindU_IsbL-0175_RLatLon0.09_PT081H.grib2 2026-05-04 03:06 411K
20260504T00Z_MSC_RDPS_WindU_IsbL-0200_RLatLon0.09_PT081H.grib2 2026-05-04 03:06 427K
20260504T00Z_MSC_RDPS_WindU_IsbL-0225_RLatLon0.09_PT081H.grib2 2026-05-04 03:06 334K
20260504T00Z_MSC_RDPS_WindU_IsbL-0250_RLatLon0.09_PT081H.grib2 2026-05-04 03:06 334K
20260504T00Z_MSC_RDPS_WindU_IsbL-0275_RLatLon0.09_PT081H.grib2 2026-05-04 03:06 347K
20260504T00Z_MSC_RDPS_WindU_IsbL-0300_RLatLon0.09_PT081H.grib2 2026-05-04 03:06 345K
20260504T00Z_MSC_RDPS_WindU_IsbL-0350_RLatLon0.09_PT081H.grib2 2026-05-04 03:06 358K
20260504T00Z_MSC_RDPS_WindU_IsbL-0400_RLatLon0.09_PT081H.grib2 2026-05-04 03:06 465K
20260504T00Z_MSC_RDPS_WindU_IsbL-0450_RLatLon0.09_PT081H.grib2 2026-05-04 03:06 463K
20260504T00Z_MSC_RDPS_WindU_IsbL-0500_RLatLon0.09_PT081H.grib2 2026-05-04 03:06 461K
20260504T00Z_MSC_RDPS_WindU_IsbL-0550_RLatLon0.09_PT081H.grib2 2026-05-04 03:06 463K
20260504T00Z_MSC_RDPS_WindU_IsbL-0600_RLatLon0.09_PT081H.grib2 2026-05-04 03:06 470K
20260504T00Z_MSC_RDPS_WindU_IsbL-0650_RLatLon0.09_PT081H.grib2 2026-05-04 03:06 470K
20260504T00Z_MSC_RDPS_WindU_IsbL-0700_RLatLon0.09_PT081H.grib2 2026-05-04 03:06 507K
20260504T00Z_MSC_RDPS_WindU_IsbL-0750_RLatLon0.09_PT081H.grib2 2026-05-04 03:06 521K
20260504T00Z_MSC_RDPS_WindU_IsbL-0800_RLatLon0.09_PT081H.grib2 2026-05-04 03:06 566K
20260504T00Z_MSC_RDPS_WindU_IsbL-0850_RLatLon0.09_PT081H.grib2 2026-05-04 03:06 626K
20260504T00Z_MSC_RDPS_WindU_IsbL-0875_RLatLon0.09_PT081H.grib2 2026-05-04 03:06 647K
20260504T00Z_MSC_RDPS_WindU_IsbL-0900_RLatLon0.09_PT081H.grib2 2026-05-04 03:06 657K
20260504T00Z_MSC_RDPS_WindU_IsbL-0925_RLatLon0.09_PT081H.grib2 2026-05-04 03:06 663K
20260504T00Z_MSC_RDPS_WindU_IsbL-0950_RLatLon0.09_PT081H.grib2 2026-05-04 03:06 660K
20260504T00Z_MSC_RDPS_WindU_IsbL-0970_RLatLon0.09_PT081H.grib2 2026-05-04 03:06 657K
20260504T00Z_MSC_RDPS_WindU_IsbL-0985_RLatLon0.09_PT081H.grib2 2026-05-04 03:06 651K
20260504T00Z_MSC_RDPS_WindU_IsbL-1000_RLatLon0.09_PT081H.grib2 2026-05-04 03:06 787K
20260504T00Z_MSC_RDPS_WindU_IsbL-1015_RLatLon0.09_PT081H.grib2 2026-05-04 03:06 782K
20260504T00Z_MSC_RDPS_WindV_AGL-10m_RLatLon0.09_PT081H.grib2 2026-05-04 03:06 429K
20260504T00Z_MSC_RDPS_WindV_AGL-120m_RLatLon0.09_PT081H.grib2 2026-05-04 03:06 535K
20260504T00Z_MSC_RDPS_WindV_AGL-40m_RLatLon0.09_PT081H.grib2 2026-05-04 03:06 537K
20260504T00Z_MSC_RDPS_WindV_AGL-80m_RLatLon0.09_PT081H.grib2 2026-05-04 03:06 536K
20260504T00Z_MSC_RDPS_WindV_IsbL-0001_RLatLon0.09_PT081H.grib2 2026-05-04 03:06 247K
20260504T00Z_MSC_RDPS_WindV_IsbL-0005_RLatLon0.09_PT081H.grib2 2026-05-04 03:06 285K
20260504T00Z_MSC_RDPS_WindV_IsbL-0010_RLatLon0.09_PT081H.grib2 2026-05-04 03:06 297K
20260504T00Z_MSC_RDPS_WindV_IsbL-0020_RLatLon0.09_PT081H.grib2 2026-05-04 03:06 318K
20260504T00Z_MSC_RDPS_WindV_IsbL-0030_RLatLon0.09_PT081H.grib2 2026-05-04 03:06 313K
20260504T00Z_MSC_RDPS_WindV_IsbL-0050_RLatLon0.09_PT081H.grib2 2026-05-04 03:06 340K
20260504T00Z_MSC_RDPS_WindV_IsbL-0100_RLatLon0.09_PT081H.grib2 2026-05-04 03:06 418K
20260504T00Z_MSC_RDPS_WindV_IsbL-0150_RLatLon0.09_PT081H.grib2 2026-05-04 03:06 386K
20260504T00Z_MSC_RDPS_WindV_IsbL-0175_RLatLon0.09_PT081H.grib2 2026-05-04 03:06 409K
20260504T00Z_MSC_RDPS_WindV_IsbL-0200_RLatLon0.09_PT081H.grib2 2026-05-04 03:06 426K
20260504T00Z_MSC_RDPS_WindV_IsbL-0225_RLatLon0.09_PT081H.grib2 2026-05-04 03:06 430K
20260504T00Z_MSC_RDPS_WindV_IsbL-0250_RLatLon0.09_PT081H.grib2 2026-05-04 03:06 333K
20260504T00Z_MSC_RDPS_WindV_IsbL-0275_RLatLon0.09_PT081H.grib2 2026-05-04 03:06 348K
20260504T00Z_MSC_RDPS_WindV_IsbL-0300_RLatLon0.09_PT081H.grib2 2026-05-04 03:06 345K
20260504T00Z_MSC_RDPS_WindV_IsbL-0350_RLatLon0.09_PT081H.grib2 2026-05-04 03:06 358K
20260504T00Z_MSC_RDPS_WindV_IsbL-0400_RLatLon0.09_PT081H.grib2 2026-05-04 03:06 463K
20260504T00Z_MSC_RDPS_WindV_IsbL-0450_RLatLon0.09_PT081H.grib2 2026-05-04 03:06 461K
20260504T00Z_MSC_RDPS_WindV_IsbL-0500_RLatLon0.09_PT081H.grib2 2026-05-04 03:06 460K
20260504T00Z_MSC_RDPS_WindV_IsbL-0550_RLatLon0.09_PT081H.grib2 2026-05-04 03:06 460K
20260504T00Z_MSC_RDPS_WindV_IsbL-0600_RLatLon0.09_PT081H.grib2 2026-05-04 03:06 467K
20260504T00Z_MSC_RDPS_WindV_IsbL-0650_RLatLon0.09_PT081H.grib2 2026-05-04 03:06 482K
20260504T00Z_MSC_RDPS_WindV_IsbL-0700_RLatLon0.09_PT081H.grib2 2026-05-04 03:06 503K
20260504T00Z_MSC_RDPS_WindV_IsbL-0750_RLatLon0.09_PT081H.grib2 2026-05-04 03:06 516K
20260504T00Z_MSC_RDPS_WindV_IsbL-0800_RLatLon0.09_PT081H.grib2 2026-05-04 03:06 563K
20260504T00Z_MSC_RDPS_WindV_IsbL-0850_RLatLon0.09_PT081H.grib2 2026-05-04 03:06 622K
20260504T00Z_MSC_RDPS_WindV_IsbL-0875_RLatLon0.09_PT081H.grib2 2026-05-04 03:06 644K
20260504T00Z_MSC_RDPS_WindV_IsbL-0900_RLatLon0.09_PT081H.grib2 2026-05-04 03:06 655K
20260504T00Z_MSC_RDPS_WindV_IsbL-0925_RLatLon0.09_PT081H.grib2 2026-05-04 03:06 661K
20260504T00Z_MSC_RDPS_WindV_IsbL-0950_RLatLon0.09_PT081H.grib2 2026-05-04 03:06 658K
20260504T00Z_MSC_RDPS_WindV_IsbL-0970_RLatLon0.09_PT081H.grib2 2026-05-04 03:06 655K
20260504T00Z_MSC_RDPS_WindV_IsbL-0985_RLatLon0.09_PT081H.grib2 2026-05-04 03:06 790K
20260504T00Z_MSC_RDPS_WindV_IsbL-1000_RLatLon0.09_PT081H.grib2 2026-05-04 03:06 784K
20260504T00Z_MSC_RDPS_WindV_IsbL-1015_RLatLon0.09_PT081H.grib2 2026-05-04 03:06 822K